EXPRESS-AM5

Last updated on Tue Jun 17 2025 00:02:46 GMT+0000 (Coordinated Universal Time)

1 39487U 13077A 25167.59078147 -.00000268 00000+0 00000+0 0 9996 2 39487 0.0165 308.7192 0000240 252.5101 56.5947 1.00273081 42696
UTC large
Height (km)
Speed (km/s)
/
Latitude / Longitude
Inclination (degrees)
Orbital Period (minutes)
Azimuth
Elevation
Range (km)
Doppler Factor

Next 0 passes for location: London (51.5072 / 0.1276)

Sorry there are no passes over London.